BLANC SABLON, QUE. ( current weather conditions

sailwx.info

Wind from 040 at 29 knots gusting 35

Air temperature -6.0° C
Visibility: greater than 0.9 NM
Dewpoint -8.0° C
Present weather: Light snow. Blowing snow.

Last reported at 2020-Jan-27 21:00 UTC.
Time now 2020-Jan-27 21:46 UTC

Location: N 51°27' W 057°11'.
View on Google Maps.

See reports from other nearby stations

  
Tides and Currents Weather Stations Pressure Air Temp Water Temp Dewpoint Dewpoint Depression Visibility Wind Speed Wind Dir Waves Ship Positions
date/time (UTC)wind fromknots sea level pressurealtimeterstation pressurevisibilityair tempwater tempwave heightnotes
2020-Jan-27 21:00 040 29 gusting 35 0.9-6.0 Light snow. Blowing snow.
2020-Jan-27 20:45 040 31 gusting 39 0.9-6.0 Light snow. Blowing snow.
2020-Jan-27 20:29 040 32 gusting 38 1.3-6.0 Light snow. Blowing snow.
2020-Jan-27 20:00 030 20 gusting 34 3.5-6.0 Blowing snow.
2020-Jan-27 19:34 040 20 gusting 29 6.9-6.0 Light low drifting snow.
2020-Jan-27 19:00 040 20 gusting 32 2.6-6.0 Light snow.
2020-Jan-27 18:54 040 20 gusting 31 2.6-6.0 Light snow.
2020-Jan-27 18:00 040 24 gusting 34 1.7-5.0 Light snow. Blowing snow.
2020-Jan-27 17:37 050 25 gusting 39 1.7-5.0 Light snow. Blowing snow.
2020-Jan-27 17:00 050 29 gusting 41 1.3-5.0 Light snow. Blowing snow.
2020-Jan-27 16:00 050 32 gusting 41 1.3-5.0 Light snow. Blowing snow.
2020-Jan-27 15:00 050 27 gusting 36 0.7-6.0 Light snow. Blowing snow.
2020-Jan-27 14:42 050 29 gusting 38 0.9-6.0 Light snow. Blowing snow.
2020-Jan-27 14:35 050 27 gusting 38 1.3-6.0 Light snow. Blowing snow.
2020-Jan-27 14:18 050 28 gusting 41 0.2-6.0 Light snow. Blowing snow.
2020-Jan-27 14:00 050 28 gusting 36 0.2-6.0 Light snow. Blowing snow.
2020-Jan-27 13:13 050 28 gusting 38 0.1-7.0 Light snow. Blowing snow.
2020-Jan-27 13:00 050 29 gusting 39 0.2-7.0 Light snow. Blowing snow.
2020-Jan-27 12:50 050 29 gusting 38 0.2-7.0 Light snow. Blowing snow.
2020-Jan-27 12:00 050 26 gusting 32 0.1-6.0 Light snow. Blowing snow.
2020-Jan-27 11:28 050 27 gusting 35 0.1-6.0 Light snow. Blowing snow.
2020-Jan-27 11:00 060 27 gusting 36 0.2-6.0 Light snow. Blowing snow.
2020-Jan-27 10:55 060 29 gusting 36 0.2-6.0 Light snow. Blowing snow.
2020-Jan-27 10:45 060 26 gusting 31 0.2-5.0 Light snow. Blowing snow.
2020-Jan-27 10:24 060 24 gusting 28 0.4-5.0 Light snow. Blowing snow.
2020-Jan-27 10:00 060 22 gusting 28 1.3-5.0 Light snow. Blowing snow.
2020-Jan-27 09:00 070 22 gusting 29 1.3-4.0 Light snow. Blowing snow.
2020-Jan-27 08:31 070 21 gusting 29 1.3-4.0 Light snow. Blowing snow.
2020-Jan-27 08:00 070 27 gusting 34 3.5-4.0 Light snow. Light low drifting snow.
2020-Jan-27 07:00 070 22 gusting 32 10.4-4.0 Light snow.
2020-Jan-27 06:00 060 13 gusting 19 13.0-4.0
2020-Jan-27 05:00 050 8 13.0-4.0
2020-Jan-27 04:00 080 6 13.0-4.0
2020-Jan-27 03:00 060 6 13.0-4.0
2020-Jan-27 02:00 13.0-5.0
2020-Jan-27 01:00 060 4 13.0-5.0
2020-Jan-27 00:00 070 1 13.0-4.0
2020-Jan-26 23:00 360 2 13.0-4.0
2020-Jan-26 22:00 260 6 13.0-3.0
2020-Jan-26 21:00 260 6 13.0-3.0
2020-Jan-26 20:00 250 8 13.0-3.0
2020-Jan-26 19:49 250 8 13.0-3.0
2020-Jan-26 19:00 240 12 13.0-3.0
2020-Jan-26 18:00 260 7 13.0-3.0
2020-Jan-26 17:00 260 11 13.0-4.0
2020-Jan-26 16:00 270 8 13.0-4.0 Light snow.
2020-Jan-26 15:00 270 6 13.0-5.0 Light snow.
2020-Jan-26 14:39 280 6 5.2-6.0 Light snow.
2020-Jan-26 14:00 280 6 1.7-6.0 Light snow.
2020-Jan-26 13:17 270 6 0.9-6.0 Light snow.
2020-Jan-26 13:11 280 6 2.6-6.0 Light snow.
2020-Jan-26 13:06 280 6 13.0-6.0 Light snow.
2020-Jan-26 13:00 280 6 13.0-6.0
2020-Jan-26 12:30 280 6 13.0-7.0
2020-Jan-26 12:00 280 6 13.0-7.0
2020-Jan-26 11:00 270 5 13.0-8.0
2020-Jan-26 10:00 280 6 13.0-7.0
2020-Jan-26 09:00 280 6 13.0-8.0
2020-Jan-26 08:00 270 6 13.0-8.0
2020-Jan-26 07:00 310 6 13.0-8.0
2020-Jan-26 06:00 270 6 13.0-8.0
2020-Jan-26 05:00 250 6 13.0-9.0
2020-Jan-26 04:00 280 11 13.0-9.0
2020-Jan-26 03:00 300 9 13.0-9.0
2020-Jan-26 02:00 290 9 13.0-10.0
2020-Jan-26 01:00 280 6 13.0-9.0
2020-Jan-26 00:00 300 8 13.0-10.0
2020-Jan-25 23:00 280 11 13.0-9.0
2020-Jan-25 22:00 270 12 gusting 17 13.0-8.0
2020-Jan-25 21:00 260 13 gusting 20 13.0-8.0